Showing default

KINEIS-2B, 62934

Orbit data source: Space-Track

KINEIS-2B, 62934 is a French payload satellite in SSO that was launched on Sat, 08 Feb 2025 UTC via an ELECTRON launch vehicle from the Rocket Lab Launch Complex (RLLC). Payload-class satellites include a variety of spacecraft equipped with specific instruments for various scientific and technological missions. These include communications satellites like Starlink; space stations such as the ISS; scientific satellites like the Hubble; Earth observation satellites from companies like Planet Labs, Umbra, and HawkEye 360; GPS; miniature CubeSats for education and research; and military/defense satellites.

Loading next visibility...
Identifier
62934, 2025-028G
Orbit
SSO
Country
Flag of FRFR
Related business
Manufacturer
KINEIS
Mission
Operational Commercial Communications
Bus & Motor
CUBESAT 16U, Unknown motor
Mass
28 kg wet, 28 kg dry
Launch date (UTC)
2025-02-08 (7 months ago)
Launch vehicle
ELECTRON
Launch site
Rocket Lab Launch Complex (RLLC)
Object type
Payload
Rocket body
Debris
Shape & HBR
Box + 2 Pan + 1 Ant, 0.8 m
Radar Cross Section
0.229 m², Medium (>0.1 m² and < 1m²)

Expand to show TLE details & history
Last TLE update: 1 day ago

TLE from 1 day ago
0 KINEIS-2B
1 62934U 25028G   25260.93687090  .00001298  00000-0  21286-3 0  9990
2 62934  98.0068 313.3370 0002364 318.2723  41.8304 14.72360250 32586
Epoch: 2025-09-17T22:29Z
TLE epoch observation values (Epoch: 2025-09-17T22:29:05.645Z)
Latitude
-0.00003°
Longitude
-21.04218°
Altitude
655.312 km
Speed
7.531 km/s
True Right ascension
20h 53m 20s
True Declination
0° 00' 00"
Sunlit
Object was in full shadow at epoch
Visualization orbit readout
Latitude
Unknown
Longitude
Unknown
Altitude
Unknown
Speed
Unknown
Apparent Right ascension
Unknown
Apparent Declination
Unknown
Sunlit
N/A
Visualization observer readout
Local Sidereal Time
22:05:47
Azimuth
Unknown
Elevation
Unknown
Doppler factor
Unknown
Orbital elements
Apogee altitude
652.261 km
Perigee altitude
648.938 km
Semi-major axis
7,028.736 km
Eccentricity
0.00024
Inclination
98.0068°
RAAN
313.337°
Arg. of periapsis
318.2723°
True anomaly
41.84847°
Mean anomaly
41.8304°
Eccentric anomaly
41.83943°
Mean motion
3.68322 °/min
Orbital period
97.74 mins
BSTAR
0.00021286
Loading maneuver chart data...
Computing Atmospheric mass density...
Loading historical data...
Loading historical data...
Loading historical data...
Loading historical data...
Loading historical data...
Loading historical data...
Loading historical data...

Documentation

Showing up to 5 results
|